Location: Alsip
(41.6689°N, 87.7387°W)
Time: 13:45:24
(UTC+00:00)

Cosmos 332 Rocket - Pass Details

Date: 14 July 2020
Orbit: 682 x 703 km, 74.0° (Epoch: 05 August)

Event Time Altitude Azimuth Distance (km) Brightness Sun altitude
Rises 04:34:47 0° 338° (NNW) 3,054 8.6 -23.9°
Reaches altitude 10° 04:37:06 10° 336° (NNW) 2,135 7.4 -24.1°
Maximum altitude 04:41:52 69° 254° (WSW) 733 3.8 -24.4°
Enters shadow 04:42:08 68° 229° (SW) 741 3.7 -24.4°
